Theta_e
323 321 319 314 313 313 315 321 326 324 323 325 326 327 327 324 327 327 325 325 325 326 330 330 331 333 331 328 327 329 329 328 331 336 334 333 334 334 336 337 347 344 348 350
322 320 318 314 313 312 312 321 324 324 325 326 325 326 327 327 327 327 325 325 325 324 325 330 330 332 329 328 329 329 327 330 331 337 335 334 335 333 334 333 338 346 343 347
321 319 317 313 312 312 313 321 328 325 326 326 326 326 326 327 327 328 326 326 324 325 325 324 330 331 330 327 328 328 326 325 328 329 337 337 336 334 335 335 335 340 344 345
319 318 316 313 313 312 313 323 325 327 329 328 326 327 326 326 327 329 325 327 327 325 325 326 326 329 329 328 335 327 324 326 328 326 335 334 333 333 334 336 338 340 345 341
318 318 315 313 313 312 316 323 327 326 328 327 326 325 329 326 326 329 330 327 327 324 326 326 329 328 329 330 328 328 327 326 330 331 330 335 335 336 337 334 335 339 341 341
317 317 314 312 312 314 320 320 322 325 326 327 325 324 325 325 326 327 331 329 326 326 326 324 325 323 321 323 328 330 331 331 331 331 332 335 337 336 337 335 335 335 340 343
317 317 313 311 312 312 314 317 320 324 327 327 327 326 324 324 326 327 328 329 329 328 324 324 323 322 322 323 322 321 328 329 329 329 330 332 334 332 333 337 339 340 343 344
317 316 312 311 312 312 313 315 320 323 326 327 327 328 327 327 326 326 330 329 327 323 326 327 326 325 327 327 326 325 322 329 327 328 329 332 335 333 331 337 342 338 340 344
316 315 312 311 311 312 312 315 319 320 323 324 323 324 326 327 327 329 331 329 327 325 328 328 330 329 331 330 330 328 325 328 324 325 331 337 337 334 332 334 348 340 338 338
316 315 312 310 310 312 312 315 317 319 321 320 320 323 325 325 327 328 332 332 330 327 327 328 328 329 330 330 330 330 330 329 329 328 329 337 335 334 331 335 341 339 339 334
314 314 311 310 310 312 313 315 317 317 319 318 318 318 321 322 326 331 330 332 331 328 327 328 328 329 331 329 331 331 332 333 328 327 327 341 334 335 340 338 337 339 338 329
313 313 310 310 310 312 313 315 317 317 316 317 315 315 315 317 321 324 326 333 329 329 329 329 330 330 330 334 332 332 331 330 333 328 337 335 332 333 333 333 336 336 337 335
312 311 309 309 309 311 312 313 314 316 317 316 318 319 319 318 317 320 330 331 328 328 328 327 331 332 332 334 334 333 333 333 333 333 335 333 334 333 329 329 331 332 330 327
312 311 309 309 309 311 312 312 315 315 316 318 319 320 317 319 319 318 321 324 324 326 329 331 333 334 332 333 332 333 331 331 332 331 330 334 329 330 327 328 329 327 326 325
312 311 309 309 309 310 310 311 312 315 316 318 317 315 317 320 319 318 318 323 327 327 330 330 333 332 329 328 332 331 332 334 329 329 331 336 330 328 329 329 330 328 327 326
312 311 309 309 309 310 311 317 316 316 316 315 320 319 320 322 323 321 320 321 326 327 329 330 328 331 332 332 333 332 328 327 328 335 326 325 325 327 328 328 329 329 329 327
310 310 308 308 309 309 313 317 314 315 314 315 320 325 323 320 323 323 322 321 322 327 328 329 332 333 333 333 333 330 328 329 329 326 325 324 326 327 328 326 328 328 329 327
310 308 308 309 309 309 310 313 313 314 313 314 322 326 329 326 327 325 324 322 325 327 327 329 334 332 333 331 330 332 330 328 326 328 329 325 327 327 324 327 328 328 329 326
308 308 309 309 310 313 314 314 314 313 314 319 322 327 332 326 329 326 325 326 328 328 328 328 333 336 327 332 331 330 332 328 329 327 327 327 328 329 326 328 329 328 327 326
307 309 312 314 314 313 313 314 315 315 316 316 320 322 331 329 329 331 327 327 330 330 331 331 332 334 331 330 329 329 332 329 328 327 328 328 327 328 328 327 327 329 328 328
310 313 314 313 312 314 315 320 320 319 322 321 321 321 323 327 331 333 330 334 331 333 336 333 332 330 332 329 328 328 331 332 329 330 328 330 328 328 327 327 326 330 329 331
310 310 312 312 314 316 320 324 325 325 326 326 325 325 323 329 329 331 331 333 332 334 332 332 333 332 331 331 331 329 335 331 328 329 328 329 331 331 328 327 329 331 328 332
311 311 312 316 316 318 323 325 329 328 326 326 326 326 329 330 323 328 332 333 335 329 334 335 332 334 336 336 335 335 333 330 329 329 329 329 329 328 329 330 331 330 331 332
312 314 313 318 320 321 323 326 326 326 325 326 327 328 328 328 331 330 329 330 331 334 335 332 339 330 334 334 333 332 332 329 328 329 330 330 330 329 328 329 329 330 331 332
313 315 317 318 317 320 324 323 324 326 325 325 328 329 327 332 333 332 331 332 330 331 334 337 336 341 342 336 331 330 330 330 330 329 327 330 331 327 326 327 330 328 326 327
313 315 318 319 323 325 323 323 326 324 325 328 328 328 329 331 332 330 330 330 331 338 334 333 338 339 339 340 338 335 331 333 330 330 331 331 330 327 326 329 325 324 326 331
316 317 317 318 320 324 322 323 323 323 326 328 328 329 329 329 330 329 328 328 333 332 328 328 333 334 334 333 336 333 335 331 331 333 332 333 329 326 330 328 325 324 326 326
Wind_Speed
25 26 27 29 31 38 23 8 4 7 24 4 3 10 10 16 24 10 2 5 7 8 6 3 5 1 5 8 6 4 6 2 4 3 4 6 4 4 5 4 2 2 4 5
23 23 24 24 25 27 16 5 4 18 18 7 8 9 20 22 23 18 8 5 7 9 5 4 4 7 7 5 4 2 5 2 3 8 9 6 4 3 4 3 5 6 5 3
21 19 20 21 22 23 14 4 3 3 5 5 9 12 16 20 22 18 7 6 8 5 1 6 4 3 8 7 6 5 3 2 4 4 6 3 2 2 3 4 1 3 1 3
18 19 18 19 20 22 7 3 4 7 4 6 13 12 18 20 20 14 8 5 5 4 3 7 6 7 7 8 11 5 3 4 5 9 7 7 6 8 8 7 5 5 9 8
15 14 16 17 19 22 4 3 4 6 10 10 11 11 12 17 20 13 14 7 9 8 5 6 5 3 5 3 7 6 4 4 5 6 7 9 7 9 9 8 4 3 3 1
13 14 14 14 16 15 5 9 8 3 6 8 9 7 14 17 16 15 9 15 10 9 9 9 5 6 6 3 1 6 0 3 3 5 5 1 4 6 7 9 6 5 4 6
12 12 11 11 11 12 7 7 9 3 6 7 9 18 19 19 17 10 13 12 3 3 11 7 7 7 6 7 9 1 2 1 2 3 6 5 1 2 5 6 9 9 10 4
11 12 10 9 8 10 10 9 5 3 6 8 14 15 16 17 17 16 11 0 4 10 6 3 4 2 2 6 7 5 4 3 1 3 3 2 2 2 4 3 6 9 10 12
11 11 9 9 8 10 12 11 8 3 5 6 9 12 12 11 8 8 7 5 5 5 0 3 4 4 4 2 2 5 5 3 5 1 2 4 6 3 3 10 8 16 15 10
10 10 9 9 9 8 10 8 6 5 5 8 7 6 7 8 8 5 7 7 7 1 1 0 3 4 3 4 2 1 1 2 2 3 5 4 3 3 6 3 4 18 11 5
9 9 9 8 8 6 8 10 4 1 4 11 12 11 9 9 4 4 7 5 4 3 3 2 2 2 1 4 2 4 5 5 4 3 2 3 2 5 5 5 14 19 16 12
10 9 8 8 7 5 6 6 8 6 5 7 31 33 34 25 17 6 4 3 3 3 2 0 3 2 3 3 3 6 2 4 3 1 5 5 2 4 3 2 4 9 17 18
8 8 8 8 7 7 8 9 10 11 4 10 11 11 26 30 32 24 2 3 5 5 2 4 2 3 3 2 1 5 6 5 3 3 4 2 3 4 4 6 13 9 5 8
7 7 8 8 8 8 8 7 7 9 4 4 7 12 11 14 22 30 27 10 13 7 1 4 3 4 1 3 3 1 2 6 3 2 2 2 4 2 7 7 10 10 12 10
7 7 7 8 9 9 10 15 18 13 4 4 9 30 24 17 22 27 26 13 6 6 3 2 2 3 4 3 4 5 1 2 2 3 4 4 1 2 2 7 9 10 11 9
8 8 8 8 9 8 5 2 2 14 7 2 4 9 8 17 13 22 14 9 5 6 1 3 3 4 3 5 4 5 4 5 12 3 5 6 5 4 10 6 9 9 11 10
9 7 8 8 7 5 5 3 2 3 6 2 5 5 5 13 10 6 5 13 5 3 2 3 3 2 2 2 3 5 5 9 6 13 9 5 6 5 6 7 9 15 19 20
9 8 8 8 8 10 9 13 15 8 2 3 4 5 4 10 3 3 3 5 4 3 3 2 4 2 3 2 4 3 4 5 3 9 10 13 11 9 10 10 10 8 10 8
8 7 7 4 3 4 3 8 12 10 4 3 3 4 3 6 4 2 2 3 3 3 7 4 4 3 3 6 8 8 7 6 5 7 7 5 11 10 9 9 10 9 8 9
6 3 3 3 3 4 3 1 3 3 4 4 4 4 3 2 3 3 4 3 4 5 5 4 3 4 6 9 13 10 8 8 6 6 6 6 5 4 8 7 6 12 9 10
3 4 2 2 2 2 3 3 4 5 4 5 5 10 5 1 2 3 3 4 1 3 2 4 1 2 6 13 13 8 8 10 8 6 8 8 8 6 5 4 5 8 16 12
3 4 4 2 2 3 4 4 4 6 4 5 5 6 5 2 3 5 4 2 2 3 3 2 3 4 8 9 16 17 11 9 8 7 6 5 6 10 7 5 5 12 21 23
2 2 2 2 3 3 5 5 4 4 3 4 5 6 6 4 6 2 3 3 1 2 1 2 3 2 7 9 5 12 11 9 7 8 9 10 9 9 9 4 10 14 16 24
2 2 4 3 4 6 6 5 3 7 4 9 4 1 3 4 6 5 3 1 3 3 5 3 2 6 6 6 5 9 11 10 9 7 7 8 10 9 8 8 9 14 18 22
3 3 4 7 8 9 7 6 4 7 7 10 4 4 3 3 3 3 3 3 3 3 1 2 4 6 3 4 4 5 5 7 7 8 8 7 14 13 10 6 13 17 15 13
3 5 5 7 6 4 4 6 6 2 9 4 2 3 3 3 2 3 4 4 5 4 2 2 3 5 6 7 3 6 6 5 6 6 9 11 16 14 13 12 16 13 12 14
5 5 8 10 7 3 3 3 3 6 7 2 3 2 5 3 2 2 3 3 5 6 3 2 1 4 6 6 11 0 4 5 3 7 10 15 23 20 15 7 15 16 15 15
Wind_Direction
330 332 337 340 349 348 357 314 280 103 157 165 208 242 253 267 277 268 181 302 303 300 330 237 209 40 90 45 38 25 16 325 25 130 23 27 323 72 129 106 216 142 170 254
326 329 335 340 350 360 340 310 276 294 180 206 230 250 253 260 271 270 171 213 252 279 359 348 322 117 105 76 56 63 341 341 20 350 357 345 110 316 89 30 134 185 161 259
319 325 332 337 346 350 346 290 295 257 242 232 249 261 258 263 256 257 248 194 251 286 360 298 298 311 149 123 104 140 91 253 210 203 181 174 226 205 124 162 129 187 336 252
314 322 329 335 342 343 327 240 269 3 316 326 325 291 266 277 289 283 229 285 256 219 199 272 256 233 174 168 164 146 158 275 280 283 189 173 193 229 214 186 188 158 187 165
307 314 323 335 342 345 213 294 352 343 300 293 301 296 263 250 274 280 270 208 250 231 207 253 280 53 45 132 210 170 209 246 288 295 339 182 218 78 66 73 356 45 203 101
308 313 321 336 346 359 314 347 343 300 286 304 306 290 308 303 267 275 296 276 222 239 200 221 279 84 38 34 191 203 70 82 41 305 354 327 286 163 179 180 181 189 129 220
295 305 313 331 345 2 326 298 308 281 288 305 297 307 310 311 326 317 267 260 270 285 93 69 61 39 4 320 310 56 143 240 106 276 323 302 203 259 242 186 123 89 55 110
290 300 305 321 327 337 326 298 296 298 293 304 295 295 330 331 329 328 306 339 354 342 112 88 80 11 315 276 286 272 228 163 160 139 271 255 75 15 8 85 146 136 166 239
285 295 299 310 317 324 331 298 325 291 302 247 336 322 313 304 330 325 332 354 71 20 160 104 144 181 216 149 268 267 291 131 122 74 266 300 224 256 228 158 138 166 180 192
280 293 293 303 314 310 326 287 313 278 274 271 315 280 316 316 331 283 319 341 354 293 56 57 143 203 207 163 245 53 45 22 161 243 228 102 281 273 299 14 199 165 140 138
286 287 286 297 308 305 327 295 296 295 286 291 269 288 299 309 304 306 347 6 345 322 137 137 215 117 346 33 284 226 194 161 210 240 258 139 292 52 90 210 111 142 157 162
287 278 281 289 303 293 302 279 330 288 236 267 297 284 270 255 259 294 297 276 173 309 42 292 99 81 70 351 261 316 180 160 165 94 183 203 94 138 207 98 147 142 144 171
291 280 281 286 298 291 271 286 301 315 272 284 250 252 268 239 227 224 242 284 28 274 34 237 167 112 101 83 353 325 360 29 93 88 48 205 184 141 31 56 91 97 110 98
300 280 282 293 292 290 278 270 275 317 291 280 287 336 320 288 223 210 218 253 300 283 350 252 113 117 93 129 140 292 262 342 83 92 61 43 58 91 137 88 102 100 83 78
310 290 286 296 301 301 294 282 268 253 242 294 298 306 285 286 251 200 214 213 248 293 301 274 162 110 106 120 109 233 328 330 161 215 168 108 237 311 27 129 129 124 117 104
301 295 292 296 302 312 338 297 78 235 208 283 288 318 279 287 244 186 193 197 211 251 272 276 101 36 118 155 159 204 214 207 262 152 131 167 233 288 296 143 142 142 133 139
289 291 290 293 294 298 235 283 313 149 177 257 284 279 233 232 258 176 177 194 198 190 230 239 123 83 76 116 163 196 221 247 116 125 104 28 293 250 285 161 155 150 142 141
292 294 300 298 300 288 276 269 229 167 215 260 278 271 289 20 274 164 182 170 173 200 198 287 102 18 42 220 204 272 264 274 344 169 183 192 205 208 252 212 142 146 142 138
284 294 296 294 228 232 265 288 196 195 233 292 284 303 289 337 273 177 168 134 166 222 215 220 116 145 180 213 222 255 237 217 224 253 234 205 184 188 172 170 155 154 164 150
281 283 220 233 185 276 172 164 155 206 203 220 247 279 261 196 288 290 138 165 204 177 224 174 184 194 194 206 217 195 239 225 225 225 247 179 187 210 165 181 157 170 172 150
237 225 241 90 164 225 215 233 212 185 229 208 227 210 219 159 293 353 34 331 59 345 138 139 192 251 203 207 231 223 229 222 222 231 210 191 173 193 158 162 185 180 168 151
277 296 305 274 240 219 247 221 204 210 244 205 198 198 158 93 48 19 329 299 270 202 315 334 209 224 229 213 212 218 190 191 209 223 193 200 174 168 159 183 227 163 161 157
297 267 275 211 199 242 235 218 208 214 218 260 170 170 138 120 59 25 284 180 226 150 85 237 232 279 248 195 150 159 168 181 209 191 194 163 147 160 163 176 169 143 150 154
253 227 268 220 227 240 229 330 342 302 328 319 341 207 192 165 156 181 145 250 248 239 191 225 17 228 219 181 155 143 174 180 194 207 181 166 167 161 155 160 154 143 139 154
248 218 239 227 238 276 325 318 340 308 291 291 341 344 56 17 87 151 127 180 196 247 299 55 330 319 261 162 142 153 172 174 179 189 197 192 153 145 144 179 146 130 130 136
236 246 251 259 269 313 331 342 331 264 296 297 238 61 343 84 65 248 184 200 186 156 182 277 256 335 12 3 311 193 175 175 167 188 178 174 147 147 157 150 137 137 145 141
215 238 230 254 266 256 320 320 320 279 281 290 64 95 211 157 163 258 223 224 150 148 193 212 87 4 333 360 336 218 124 132 157 187 174 144 149 147 146 135 154 151 151 149